Regional Weather Roundup
Issued by NWS Sioux Falls, SD

Home | Current Version | Previous Version | Text Only | Print | Product List | Glossary On
Versions: 1 2 3 4 5 6 7 8 9 10 11 12 13 14 15 16 17 18 19 20 21 22 23 24 25 26 27 28 29 30 31 32 33 34 35 36 37 38 39 40 41 42 43 44 45 46 47 48 49 50
081
ASUS43 KFSD 222202
RWRFSD

WEATHER ROUNDUP FOR SE SOUTH DAKOTA/SW MINNESOTA/NW IOWA
NATIONAL WEATHER SERVICE SIOUX FALLS SD
500 PM CDT WED MAR 22 2017

NOTE: "FAIR" INDICATES FEW OR NO CLOUDS BELOW 12,000 FEET WITH NO
SIGNIFICANT WEATHER AND OR OBSTRUCTIONS TO VISIBILITY.


SDZ038>040-050-052>070-222300-
SOUTHEAST SOUTH DAKOTA

CITY           SKY/WX    TMP DP  RH WIND       PRES   REMARKS
BROOKINGS      CLOUDY    34  22  61 SE25G31   30.17F WCI  21
CHAMBERLAIN    MOSUNNY   44  30  57 SE24G30   30.00F
HURON          CLOUDY    38  24  57 SE20G33   30.08F
MADISON        CLOUDY    32  25  74 SE24      30.17F WCI  19
MITCHELL       CLOUDY    40  25  55 SE21G32   30.12F
SIOUX FALLS    CLOUDY    38  24  57 SE17G25   30.21F
WINNER         FAIR      55  29  36 S28G35    29.95F
YANKTON        PTSUNNY   43  23  45 SE16G22   30.17F
$$

MNZ071-072-080-081-089-090-097-098-222300-
SOUTHWEST MINNESOTA

CITY           SKY/WX    TMP DP  RH WIND       PRES   REMARKS
FAIRMONT       CLOUDY    36  24  62 SE16      30.34F
JACKSON        CLOUDY    34  25  69 SE13      30.32F WCI  25
MARSHALL       MIX PCPN  33  27  78 SE18      30.27F WCI  22
MONTEVIDEO     CLOUDY    34  25  69 S16G22    30.30F WCI  23
PIPESTONE      CLOUDY    34  23  64 SE17G26   30.21F WCI  23
REDWOOD FALLS  CLOUDY    36  22  56 SE21G29   30.32F
TRACY          MIX PCPN  33  29  85 SE15G22   30.28F WCI  23
WINDOM         CLOUDY    34  25  69 SE14      30.31F WCI  24
WORTHINGTON    CLOUDY    32  25  75 SE16G23   30.27F WCI  21
$$

IAZ001>003-012>014-020>022-031-032-NEZ013-014-SDZ071-222300-
NORTHWEST IOWA

CITY           SKY/WX    TMP DP  RH WIND       PRES   REMARKS
CHEROKEE       CLOUDY    41  24  51 SE17G23   30.28F
DENISON        CLOUDY    43  28  56 SE16G22   30.25F
ESTHERVILLE    CLOUDY    35  26  69 SE15      30.31F WCI  25
LE MARS        CLOUDY    41  25  52 SE14G24   30.25F
ORANGE CITY    CLOUDY    39  27  60 SE12G22   30.23F
SHELDON        CLOUDY    37  28  70 SE15G22   30.24F
SIOUX CITY     CLOUDY    44  28  53 SE20      30.23F
SPENCER        CLOUDY    37  24  59 SE16      30.30F
$$

ABBREVIATIONS USED IN REMARKS
   TC - TEMPERATURE IN CELSIUS
  WCI - WIND CHILL INDEX
   HX - HEAT INDEX
  VSB - VISIBILITY





USA.gov is the U.S. government's official web portal to all federal, state and local government web resources and services.